Vorticity
17 6 8 7 5 5 3 5 14 14 25 25 -9 38 30 27 44 39 2 -6 40 60 53 65 40 14 21 30 21 11 -2 40 7 11 5 11 6 7 14 20 11 8 17 5 9 10 -8 16 9 3 14 5 4 4
10 23 10 6 5 5 5 1 1 3 6 9 8 16 27 0 21 4 43 14 22 13 6 13 51 26 46 2 31 13 17 15 4 6 -1 6 6 4 7 16 12 6 11 7 -1 -2 3 4 6 8 9 13 14 11
11 9 13 24 12 5 4 5 7 7 2 2 5 4 6 9 12 9 5 9 4 4 1 7 6 4 5 -4 -6 18 24 15 19 19 2 -2 17 11 6 6 3 -8 -1 -5 7 13 20 17 11 15 14 14 12 8
19 13 10 10 19 27 13 6 6 7 9 7 7 11 13 14 12 7 9 16 13 15 16 15 10 14 9 22 17 7 15 8 16 11 7 9 9 3 4 6 5 5 8 5 6 6 9 -2 9 7 8 4 4 7
3 16 12 11 8 9 18 30 22 12 9 13 13 9 7 13 15 10 10 14 21 17 17 26 17 17 16 11 2 19 8 10 10 11 15 15 12 18 21 14 11 15 18 21 23 24 13 12 15 18 19 20 18 19
8 4 14 10 11 11 8 9 16 22 19 13 16 15 11 11 10 18 20 11 17 -3 28 25 23 26 15 12 11 17 14 13 12 16 17 18 20 18 16 17 26 29 18 12 12 12 12 17 16 16 16 17 14 11
12 8 6 16 9 10 8 11 12 12 15 18 15 15 14 13 16 13 8 18 13 13 13 7 4 3 11 10 12 16 14 12 13 14 14 15 13 12 18 27 20 10 10 16 16 18 14 13 16 18 15 16 15 14
21 16 12 9 13 11 10 11 11 14 15 18 18 16 12 10 8 11 9 9 7 5 4 7 7 7 7 9 11 10 10 12 12 14 17 17 14 17 20 14 10 12 12 14 15 14 15 14 30 20 12 18 29 38
21 21 17 16 13 6 7 13 12 15 13 14 14 16 14 13 13 9 9 10 10 9 11 11 7 9 10 13 15 18 17 15 13 12 11 12 14 14 12 18 25 24 24 26 24 24 24 23 17 24 29 26 28 50
19 17 14 15 24 4 8 6 9 13 15 16 15 13 14 13 13 11 15 14 13 12 11 15 20 18 15 11 10 11 9 9 9 10 15 16 9 19 19 18 13 17 9 28 33 38 33 22 23 24 25 19 23 23
18 19 8 5 19 10 8 8 14 6 8 7 12 9 9 12 11 16 16 12 13 10 12 14 11 11 9 10 7 8 11 13 19 12 13 9 26 15 16 5 21 20 23 27 22 -4 21 10 9 14 15 9 12 10
25 32 10 8 12 12 4 11 4 9 14 6 9 6 3 10 14 11 14 15 16 17 17 17 16 18 22 14 19 21 18 18 11 15 16 13 4 12 11 22 27 31 18 10 -4 -12 -4 11 18 10 19 10 14 -9
15 10 17 -10 19 17 12 -3 11 9 5 7 3 5 4 14 13 14 14 15 13 12 13 14 12 13 20 18 10 2 16 13 14 11 14 15 12 6 7 4 3 10 14 22 28 10 7 7 7 4 5 5 3 4
8 9 12 11 10 3 -11 -4 -4 11 11 0 3 3 1 -1 26 23 15 10 9 8 7 11 17 11 10 17 22 16 21 14 11 14 12 12 3 12 12 8 20 -10 9 13 14 9 17 10 10 9 11 11 12 14
12 16 14 7 9 12 9 15 18 19 -0 4 -5 -2 2 -2 38 15 9 4 10 10 14 25 11 7 11 5 12 20 16 18 14 9 14 9 5 7 11 18 1 13 -0 3 3 3 3 5 8 7 6 10 8 8
11 39 15 13 11 5 -9 5 -4 0 7 7 7 4 -4 5 31 11 7 10 9 6 5 18 10 18 7 15 14 19 16 4 -0 8 -2 2 9 11 8 7 7 6 5 5 -3 5 7 10 12 13 11 10 9 8
9 46 80 32 10 -3 1 11 16 15 6 10 8 -2 12 30 12 10 11 3 6 1 21 20 17 11 14 14 11 16 19 -2 2 3 7 8 3 7 12 16 9 7 7 9 9 10 13 16 17 15 16 20 20 15
7 20 35 38 15 19 25 22 18 15 17 18 29 24 24 13 7 7 15 4 6 3 10 22 17 10 -0 -9 -16 8 4 2 7 12 16 6 4 3 8 10 18 12 8 7 6 7 11 9 8 8 9 10 6 6
5 6 20 23 21 16 19 19 25 24 19 25 1 10 13 11 7 14 15 15 11 7 -5 6 18 14 -3 4 1 6 3 7 -0 -8 -1 16 1 10 5 20 16 11 12 10 9 11 13 12 11 10 10 12 12 14
4 8 1 2 15 17 8 8 17 12 1 15 13 7 11 8 6 20 3 -5 9 16 13 15 3 6 6 4 2 3 3 5 -2 5 -1 6 11 11 4 18 20 20 19 21 23 21 17 16 18 18 13 11 12 11
13 10 6 13 12 7 7 7 4 5 7 10 12 13 19 12 14 17 13 4 12 10 11 14 16 1 -1 11 8 5 3 5 13 5 9 14 5 8 -3 20 9 9 11 9 12 17 21 19 16 14 17 16 15 14
3 10 12 -3 -2 6 11 9 11 8 10 14 13 6 0 1 5 3 4 8 9 10 9 10 12 8 8 10 12 15 11 17 18 24 19 16 6 8 6 17 9 8 8 8 6 7 11 14 18 17 15 18 19 17
8 7 7 11 11 11 8 7 7 9 11 8 3 2 1 5 8 8 6 12 9 9 10 10 7 12 18 12 15 7 4 7 -2 30 1 -1 7 9 6 16 7 4 6 7 6 4 4 5 9 12 13 13 22 19
10 7 3 3 5 4 3 4 6 6 6 8 8 9 15 7 9 8 14 10 11 11 11 13 6 3 14 10 6 12 12 15 18 22 12 12 10 15 9 10 7 10 8 6 8 5 4 3 3 3 5 9 14 16
4 7 8 8 6 6 4 3 4 3 3 5 5 5 3 5 5 2 1 9 7 5 2 6 13 3 -1 3 3 3 6 4 5 5 10 15 12 11 15 15 15 7 5 4 7 7 7 3 1 2 2 1 1 3
13 9 11 11 8 7 7 5 5 5 5 5 4 6 6 6 4 4 4 1 1 1 1 4 6 7 7 7 9 8 7 9 11 7 3 3 6 7 7 7 4 6 14 10 3 1 3 3 1 -0 -2 -4 -2 -1
15 12 12 17 13 14 15 13 13 12 13 14 13 12 8 7 7 9 10 11 10 8 7 6 6 7 8 10 12 12 12 12 13 13 14 11 10 8 8 8 6 4 5 7 9 10 9 6 3 2 7 7 7 8
33 18 4 10 10 4 8 16 15 15 14 13 12 11 9 9 9 8 9 13 14 16 19 21 23 21 19 19 18 16 20 16 10 11 10 12 17 17 17 16 15 16 14 11 10 10 10 10 12 14 15 15 14 13
36 38 20 4 13 12 10 5 0 4 14 18 18 15 6 9 10 12 15 9 6 3 15 22 19 14 15 14 12 18 19 17 18 20 16 11 7 6 6 8 10 11 13 14 13 14 14 15 17 19 20 23 24 25
31 47 42 31 3 -5 -1 0 -3 -4 9 3 8 5 5 12 13 13 10 6 7 33 35 7 12 11 -1 2 5 7 10 12 12 11 12 14 16 18 17 18 19 17 14 13 13 11 10 11 11 10 11 13 15 16
27 25 40 54 39 23 23 22 17 16 18 31 31 27 30 25 22 27 23 24 26 14 20 4 8 -2 3 -0 5 -1 16 20 20 20 20 21 22 21 22 20 15 12 12 15 18 20 19 17 18 17 14 9 9 12
39 22 25 36 43 40 22 24 13 21 3 4 9 5 -1 10 17 9 15 3 4 17 4 4 -6 6 -5 4 0 7 10 9 6 12 13 12 10 12 14 17 17 17 16 13 12 14 12 12 11 14 18 20 12 8
34 31 22 25 35 34 32 33 22 14 15 14 -1 3 -4 11 4 6 8 24 17 0 -5 -0 2 10 8 3 0 10 9 8 14 5 5 10 13 16 16 18 18 19 21 23 25 26 26 22 18 12 12 12 16 18
Height
5349 5352 5356 5360 5364 5367 5370 5372 5374 5377 5381 5386 5392 5399 5403 5409 5416 5423 5429 5438 5447 5453 5457 5465 5472 5479 5485 5490 5498 5502 5506 5508 5515 5520 5525 5529 5532 5539 5544 5548 5551 5554 5555 5557 5556 5557 5568 5579 5566 5562 5565 5561 5563 5566
5348 5349 5351 5356 5361 5364 5367 5372 5375 5379 5382 5386 5390 5394 5399 5404 5410 5417 5426 5433 5440 5446 5451 5455 5462 5468 5474 5478 5484 5489 5496 5500 5504 5509 5515 5518 5524 5528 5532 5534 5535 5537 5541 5543 5544 5548 5554 5555 5551 5545 5543 5542 5545 5548
5347 5348 5349 5350 5354 5359 5364 5368 5373 5376 5379 5384 5390 5396 5401 5404 5408 5414 5419 5426 5433 5439 5446 5451 5453 5460 5466 5471 5476 5480 5484 5488 5491 5497 5502 5507 5511 5517 5517 5522 5524 5524 5526 5527 5528 5533 5532 5533 5533 5530 5529 5529 5528 5530
5347 5348 5349 5351 5353 5356 5359 5363 5367 5371 5376 5381 5385 5389 5393 5398 5404 5412 5420 5425 5430 5436 5439 5443 5448 5453 5457 5461 5467 5468 5474 5478 5481 5485 5490 5494 5499 5500 5502 5507 5510 5510 5511 5513 5511 5515 5515 5520 5518 5515 5512 5512 5511 5512
5343 5345 5348 5351 5353 5355 5358 5360 5364 5368 5373 5378 5381 5384 5388 5392 5396 5401 5407 5413 5419 5426 5430 5435 5440 5444 5448 5453 5457 5459 5463 5466 5469 5473 5477 5481 5484 5486 5488 5491 5500 5499 5499 5493 5496 5498 5497 5503 5498 5495 5492 5492 5494 5495
5340 5343 5345 5348 5352 5356 5359 5361 5363 5365 5369 5372 5377 5382 5386 5390 5393 5397 5402 5408 5412 5416 5421 5424 5428 5434 5440 5445 5446 5449 5452 5457 5459 5463 5467 5470 5471 5473 5477 5482 5491 5485 5479 5478 5482 5480 5482 5488 5484 5482 5481 5482 5480 5478
5335 5338 5342 5345 5348 5352 5355 5359 5363 5366 5368 5371 5375 5379 5383 5386 5390 5394 5399 5404 5407 5411 5416 5419 5423 5425 5430 5435 5439 5443 5448 5449 5451 5455 5458 5461 5462 5463 5469 5477 5475 5465 5467 5468 5470 5470 5476 5474 5473 5468 5465 5465 5462 5461
5327 5333 5338 5343 5347 5351 5354 5357 5359 5362 5365 5368 5372 5375 5380 5383 5388 5391 5394 5398 5401 5406 5409 5414 5418 5423 5425 5428 5434 5437 5439 5442 5445 5449 5452 5454 5456 5458 5464 5461 5461 5460 5459 5460 5461 5460 5460 5457 5455 5454 5451 5449 5446 5443
5322 5327 5334 5340 5345 5350 5354 5357 5360 5362 5365 5368 5370 5373 5377 5381 5384 5387 5391 5395 5398 5403 5406 5410 5413 5416 5420 5425 5429 5432 5434 5437 5440 5443 5447 5449 5450 5452 5452 5452 5450 5448 5448 5448 5447 5448 5448 5448 5447 5444 5442 5440 5435 5427
5320 5326 5333 5339 5345 5351 5355 5358 5361 5363 5366 5368 5371 5374 5377 5380 5383 5386 5389 5390 5393 5397 5401 5404 5408 5414 5418 5421 5425 5427 5429 5431 5433 5437 5440 5442 5443 5443 5443 5443 5443 5442 5441 5440 5439 5440 5441 5441 5440 5439 5437 5436 5433 5429
5322 5327 5334 5340 5346 5351 5356 5359 5363 5366 5369 5371 5374 5377 5380 5383 5385 5387 5389 5392 5395 5398 5402 5405 5408 5411 5414 5418 5421 5424 5424 5426 5429 5434 5436 5437 5438 5439 5439 5440 5439 5439 5439 5438 5438 5439 5440 5440 5439 5438 5436 5435 5434 5432
5327 5331 5338 5344 5349 5353 5357 5361 5365 5368 5370 5373 5376 5379 5382 5384 5386 5388 5389 5392 5395 5398 5401 5404 5407 5410 5412 5415 5417 5419 5422 5425 5428 5431 5433 5434 5437 5437 5437 5438 5437 5437 5438 5439 5439 5439 5440 5439 5438 5437 5437 5436 5436 5436
5334 5339 5342 5347 5350 5354 5358 5362 5366 5369 5372 5375 5378 5381 5383 5385 5386 5387 5388 5391 5394 5396 5399 5401 5404 5406 5409 5412 5415 5417 5420 5423 5425 5429 5431 5434 5435 5436 5436 5437 5438 5438 5438 5438 5438 5439 5439 5439 5438 5438 5437 5437 5437 5438
5342 5344 5347 5349 5351 5355 5359 5362 5366 5368 5372 5375 5378 5380 5383 5384 5385 5386 5389 5392 5394 5397 5399 5401 5403 5406 5408 5411 5413 5416 5418 5421 5424 5427 5430 5431 5433 5434 5435 5435 5436 5436 5436 5436 5437 5438 5437 5437 5437 5437 5436 5436 5436 5436
5346 5346 5347 5348 5351 5354 5358 5361 5364 5368 5371 5374 5377 5380 5382 5385 5385 5387 5390 5392 5394 5397 5399 5401 5404 5407 5409 5411 5413 5415 5417 5420 5423 5425 5427 5429 5431 5432 5432 5432 5433 5434 5434 5433 5434 5434 5434 5434 5434 5434 5434 5434 5434 5434
5345 5343 5342 5344 5348 5353 5357 5361 5364 5367 5370 5374 5377 5379 5382 5384 5386 5388 5390 5393 5395 5397 5400 5401 5404 5407 5409 5411 5413 5415 5417 5419 5422 5424 5426 5427 5428 5428 5428 5429 5429 5429 5430 5430 5431 5431 5431 5431 5431 5431 5431 5431 5430 5430
5343 5336 5330 5338 5346 5352 5356 5360 5363 5366 5369 5372 5375 5377 5380 5382 5385 5388 5390 5393 5396 5398 5399 5401 5404 5407 5410 5412 5414 5415 5417 5420 5422 5423 5424 5425 5425 5425 5425 5425 5425 5426 5426 5426 5427 5427 5427 5426 5426 5425 5425 5426 5426 5426
5348 5343 5340 5345 5350 5353 5356 5359 5362 5365 5367 5370 5372 5375 5378 5382 5385 5388 5390 5393 5395 5398 5399 5401 5404 5407 5409 5412 5414 5416 5417 5419 5420 5422 5423 5423 5423 5423 5422 5422 5422 5422 5422 5423 5422 5422 5422 5422 5422 5422 5422 5422 5422 5422
5353 5352 5352 5352 5353 5355 5358 5360 5362 5364 5367 5369 5373 5376 5379 5381 5384 5387 5390 5392 5394 5396 5398 5401 5403 5406 5407 5408 5411 5413 5415 5416 5418 5419 5419 5419 5420 5420 5420 5419 5418 5418 5417 5417 5417 5417 5417 5417 5417 5417 5417 5417 5417 5417
5355 5356 5356 5357 5357 5358 5360 5362 5363 5366 5368 5371 5374 5376 5379 5381 5384 5386 5389 5391 5393 5395 5397 5399 5401 5403 5405 5407 5408 5410 5412 5413 5414 5415 5416 5416 5416 5416 5416 5414 5414 5413 5413 5413 5412 5412 5411 5411 5411 5411 5411 5411 5412 5412
5356 5356 5357 5359 5360 5361 5362 5363 5365 5367 5369 5371 5374 5375 5378 5380 5382 5384 5387 5389 5391 5392 5395 5396 5398 5400 5402 5404 5405 5406 5408 5409 5409 5410 5410 5411 5412 5412 5412 5411 5410 5410 5410 5409 5409 5408 5408 5407 5407 5406 5406 5406 5406 5406
5355 5356 5357 5358 5360 5362 5363 5364 5365 5367 5369 5371 5373 5375 5377 5379 5381 5383 5384 5386 5387 5389 5391 5393 5394 5396 5398 5399 5400 5401 5402 5403 5403 5403 5404 5404 5405 5406 5406 5406 5406 5407 5407 5407 5406 5406 5405 5404 5404 5403 5402 5401 5400 5400
5353 5354 5355 5356 5357 5358 5361 5362 5364 5365 5367 5369 5371 5372 5374 5376 5377 5379 5381 5382 5384 5386 5387 5389 5390 5392 5393 5394 5395 5396 5396 5396 5397 5397 5398 5399 5400 5399 5399 5401 5402 5402 5403 5403 5403 5403 5403 5402 5401 5400 5399 5397 5396 5396
5347 5349 5350 5351 5353 5355 5357 5358 5359 5361 5363 5364 5366 5367 5369 5371 5372 5374 5376 5377 5379 5381 5382 5384 5385 5386 5387 5388 5389 5389 5390 5390 5390 5391 5391 5392 5392 5393 5393 5394 5395 5395 5396 5397 5398 5398 5398 5398 5397 5397 5396 5395 5394 5393
5341 5342 5343 5344 5347 5350 5351 5352 5354 5355 5357 5358 5360 5362 5364 5365 5366 5368 5371 5373 5374 5375 5377 5378 5378 5379 5380 5381 5381 5382 5383 5383 5384 5384 5384 5385 5385 5386 5386 5386 5387 5388 5389 5390 5390 5391 5391 5391 5391 5391 5391 5391 5390 5390
5331 5331 5332 5335 5338 5341 5342 5344 5345 5346 5348 5349 5352 5354 5355 5356 5358 5360 5364 5365 5366 5367 5368 5369 5369 5369 5371 5371 5372 5373 5373 5374 5375 5376 5376 5376 5377 5378 5378 5379 5379 5380 5380 5381 5382 5383 5383 5384 5384 5384 5384 5384 5384 5384
5319 5319 5322 5325 5327 5329 5331 5333 5335 5336 5337 5339 5341 5342 5343 5344 5347 5352 5354 5355 5355 5356 5357 5358 5358 5359 5360 5361 5361 5361 5362 5363 5363 5365 5365 5366 5367 5367 5368 5369 5370 5370 5371 5372 5372 5373 5373 5374 5374 5374 5374 5375 5375 5375
5309 5311 5312 5315 5317 5318 5319 5321 5322 5324 5326 5328 5330 5331 5332 5333 5338 5340 5342 5343 5344 5345 5345 5346 5346 5347 5348 5348 5349 5350 5350 5351 5351 5353 5354 5355 5355 5356 5357 5357 5358 5358 5359 5360 5360 5361 5361 5362 5362 5362 5363 5362 5363 5363
5299 5299 5301 5302 5304 5305 5306 5309 5310 5312 5315 5316 5318 5319 5320 5322 5325 5327 5329 5330 5332 5334 5335 5335 5336 5337 5338 5339 5340 5340 5341 5341 5342 5343 5343 5344 5345 5346 5346 5346 5347 5347 5347 5347 5348 5349 5349 5349 5349 5349 5349 5349 5349 5349
5290 5288 5287 5289 5291 5291 5293 5295 5298 5300 5303 5305 5306 5307 5309 5311 5313 5314 5317 5319 5321 5322 5323 5326 5328 5329 5329 5330 5331 5331 5331 5332 5332 5332 5332 5332 5333 5333 5334 5334 5335 5335 5336 5336 5336 5337 5338 5338 5338 5339 5339 5339 5339 5339
5282 5278 5275 5274 5275 5277 5277 5281 5284 5286 5289 5292 5293 5295 5297 5299 5301 5302 5305 5307 5309 5312 5316 5318 5319 5319 5320 5321 5322 5323 5323 5323 5322 5322 5322 5322 5321 5322 5322 5322 5323 5323 5324 5324 5325 5325 5326 5326 5327 5327 5328 5329 5330 5330
5275 5271 5267 5263 5262 5263 5263 5266 5271 5274 5278 5281 5284 5285 5288 5288 5291 5294 5296 5299 5301 5303 5305 5308 5308 5308 5310 5312 5312 5313 5314 5314 5314 5314 5313 5313 5313 5312 5312 5312 5312 5312 5312 5313 5314 5314 5315 5315 5316 5317 5317 5318 5319 5321
5270 5264 5260 5256 5253 5251 5251 5254 5257 5262 5266 5270 5272 5273 5275 5279 5281 5285 5287 5289 5291 5293 5295 5296 5297 5299 5300 5301 5303 5304 5304 5304 5304 5305 5305 5304 5304 5304 5304 5303 5303 5302 5302 5302 5302 5303 5303 5304 5305 5306 5307 5308 5309 5310